02-06-2023, 00:00:03,     81,    0.1,    8.5,   0.00,   0.00, 1021.6,   70.3, -999.0
02-06-2023, 00:00:12,     79,    0.6,    8.5,   0.00,   0.00, 1021.7,   70.5, -999.0
02-06-2023, 00:00:23,     65,    0.5,    8.5,   0.00,   0.00, 1021.7,   70.4, -999.0
02-06-2023, 00:00:33,     63,    0.6,    8.5,   0.00,   0.00, 1021.7,   70.2, -999.0
02-06-2023, 00:00:42,     32,    3.5,    8.5,   0.00,   0.00, 1021.6,   70.3, -999.0
02-06-2023, 00:00:52,     42,    3.3,    8.4,   0.00,   0.00, 1021.7,   70.1, -999.0
02-06-2023, 00:01:03,     47,    2.3,    8.4,   0.00,   0.00, 1021.7,   70.2, -999.0
02-06-2023, 00:01:13,     47,    1.6,    8.3,   0.00,   0.00, 1021.7,   70.3, -999.0
02-06-2023, 00:01:24,     49,    0.9,    8.4,   0.00,   0.00, 1021.7,   70.3, -999.0
02-06-2023, 00:01:32,     49,    0.4,    8.4,   0.00,   0.00, 1021.6,   70.6, -999.0
02-06-2023, 00:01:43,     58,    0.7,    8.4,   0.00,   0.00, 1021.6,   71.1, -999.0
02-06-2023, 00:01:52,     72,    0.4,    8.6,   0.00,   0.00, 1021.6,   71.3, -999.0
02-06-2023, 00:02:02,     71,    0.6,    8.7,   0.00,   0.00, 1021.6,   71.2, -999.0
02-06-2023, 00:02:12,     71,    0.2,    8.7,   0.00,   0.00, 1021.6,   70.9, -999.0
02-06-2023, 00:02:22,     71,    0.8,    8.8,   0.00,   0.00, 1021.6,   70.6, -999.0
02-06-2023, 00:02:32,     70,    0.7,    8.7,   0.00,   0.00, 1021.6,   70.2, -999.0
02-06-2023, 00:02:42,     70,    0.0,    8.6,   0.00,   0.00, 1021.6,   69.8, -999.0
02-06-2023, 00:02:53,     70,    1.2,    8.6,   0.00,   0.00, 1021.7,   69.9, -999.0
02-06-2023, 00:03:02,     42,    3.4,    8.6,   0.00,   0.00, 1021.7,   69.8, -999.0
02-06-2023, 00:03:12,     48,    3.0,    8.6,   0.00,   0.00, 1021.7,   69.8, -999.0
02-06-2023, 00:03:22,     48,    2.5,    8.5,   0.00,   0.00, 1021.7,   69.8, -999.0
02-06-2023, 00:03:32,     49,    3.5,    8.5,   0.00,   0.00, 1021.7,   69.8, -999.0
02-06-2023, 00:03:42,     25,    2.8,    8.4,   0.00,   0.00, 1021.6,   69.7, -999.0
02-06-2023, 00:03:52,     43,    3.6,    8.4,   0.00,   0.00, 1021.6,   69.8, -999.0
02-06-2023, 00:04:02,     49,    4.1,    8.3,   0.00,   0.00, 1021.6,   69.9, -999.0
02-06-2023, 00:04:12,     24,    2.9,    8.4,   0.00,   0.00, 1021.6,   70.1, -999.0
02-06-2023, 00:04:23,     43,    2.9,    8.4,   0.00,   0.00, 1021.7,   70.5, -999.0
02-06-2023, 00:04:32,     33,    2.0,    8.3,   0.00,   0.00, 1021.7,   70.4, -999.0
02-06-2023, 00:04:42,     29,    2.2,    8.3,   0.00,   0.00, 1021.7,   70.5, -999.0
02-06-2023, 00:04:52,     52,    2.6,    8.3,   0.00,   0.00, 1021.6,   70.5, -999.0
02-06-2023, 00:05:02,     52,    0.8,    8.3,   0.00,   0.00, 1021.6,   70.5, -999.0
02-06-2023, 00:05:12,     36,    2.5,    8.4,   0.00,   0.00, 1021.6,   70.7, -999.0
02-06-2023, 00:05:22,     49,    2.6,    8.3,   0.00,   0.00, 1021.7,   70.7, -999.0
02-06-2023, 00:05:32,     49,    0.7,    8.3,   0.00,   0.00, 1021.7,   70.8, -999.0
02-06-2023, 00:05:42,     49,    1.3,    8.2,   0.00,   0.00, 1021.6,   70.8, -999.0
02-06-2023, 00:05:52,     49,    0.5,    8.3,   0.00,   0.00, 1021.6,   71.0, -999.0
02-06-2023, 00:06:02,     51,    0.2,    8.3,   0.00,   0.00, 1021.6,   71.4, -999.0
02-06-2023, 00:06:12,     64,    1.9,    8.5,   0.00,   0.00, 1021.6,   71.6, -999.0
02-06-2023, 00:06:22,      5,    2.2,    8.4,   0.00,   0.00, 1021.7,   71.1, -999.0
02-06-2023, 00:06:32,     20,    0.8,    8.5,   0.00,   0.00, 1021.7,   70.9, -999.0
02-06-2023, 00:06:42,     21,    0.0,    8.3,   0.00,   0.00, 1021.6,   70.5, -999.0
02-06-2023, 00:06:52,     21,    0.0,    8.3,   0.00,   0.00, 1021.6,   70.6, -999.0
02-06-2023, 00:07:02,     20,    0.0,    8.3,   0.00,   0.00, 1021.6,   70.4, -999.0
02-06-2023, 00:07:12,     21,    0.0,    8.4,   0.00,   0.00, 1021.6,   70.5, -999.0
02-06-2023, 00:07:22,     21,    0.0,    8.4,   0.00,   0.00, 1021.5,   70.7, -999.0
02-06-2023, 00:07:32,     21,    0.0,    8.5,   0.00,   0.00, 1021.6,   70.7, -999.0
02-06-2023, 00:07:42,     20,    0.0,    8.4,   0.00,   0.00, 1021.6,   70.7, -999.0
02-06-2023, 00:07:51,     21,    0.0,    8.5,   0.00,   0.00, 1021.5,   70.6, -999.0
02-06-2023, 00:08:02,     21,    0.0,    8.5,   0.00,   0.00, 1021.5,   70.6, -999.0
02-06-2023, 00:08:12,     21,    0.2,    8.5,   0.00,   0.00, 1021.6,   70.7, -999.0
02-06-2023, 00:08:22,     23,    0.4,    8.5,   0.00,   0.00, 1021.6,   70.4, -999.0
02-06-2023, 00:08:31,     91,    1.6,    8.5,   0.00,   0.00, 1021.6,   70.4, -999.0
02-06-2023, 00:08:42,     96,    1.4,    8.5,   0.00,   0.00, 1021.6,   70.4, -999.0
02-06-2023, 00:08:52,     99,    1.0,    8.5,   0.00,   0.00, 1021.6,   70.5, -999.0
02-06-2023, 00:09:01,     99,    0.0,    8.5,   0.00,   0.00, 1021.5,   70.5, -999.0
02-06-2023, 00:09:12,     73,    0.9,    8.7,   0.00,   0.00, 1021.6,   70.9, -999.0
02-06-2023, 00:09:22,     72,    0.8,    8.6,   0.00,   0.00, 1021.7,   70.5, -999.0
02-06-2023, 00:09:32,     72,    0.1,    8.5,   0.00,   0.00, 1021.6,   70.0, -999.0
02-06-2023, 00:09:41,     72,    0.0,    8.5,   0.00,   0.00, 1021.5,   69.8, -999.0
02-06-2023, 00:09:52,     72,    0.0,    8.5,   0.00,   0.00, 1021.6,   69.9, -999.0
02-06-2023, 00:10:02,      0,    1.0,    8.6,   0.00,   0.00, 1021.7,   70.2, -999.0
02-06-2023, 00:10:11,      0,    0.1,    8.5,   0.00,   0.00, 1021.6,   69.7, -999.0
02-06-2023, 00:10:21,      0,    0.0,    8.4,   0.00,   0.00, 1021.6,   69.6, -999.0
02-06-2023, 00:10:32,      0,    0.0,    8.4,   0.00,   0.00, 1021.5,   69.8, -999.0
02-06-2023, 00:10:41,      0,    0.0,    8.5,   0.00,   0.00, 1021.6,   70.1, -999.0
02-06-2023, 00:10:51,      0,    0.0,    8.4,   0.00,   0.00, 1021.6,   70.0, -999.0
02-06-2023, 00:11:01,      0,    0.0,    8.4,   0.00,   0.00, 1021.6,   70.2, -999.0
02-06-2023, 00:11:11,      0,    0.0,    8.5,   0.00,   0.00, 1021.5,   70.1, -999.0
02-06-2023, 00:11:21,      0,    0.0,    8.5,   0.00,   0.00, 1021.5,   70.1, -999.0
02-06-2023, 00:11:31,      0,    0.2,    8.5,   0.00,   0.00, 1021.6,   70.4, -999.0
02-06-2023, 00:11:42,     43,    1.0,    8.6,   0.00,   0.00, 1021.6,   70.2, -999.0
02-06-2023, 00:11:51,     31,    0.3,    8.5,   0.00,   0.00, 1021.6,   70.0, -999.0
02-06-2023, 00:12:01,      0,    1.2,    8.5,   0.00,   0.00, 1021.6,   70.1, -999.0
02-06-2023, 00:12:11,    353,    1.7,    8.5,   0.00,   0.00, 1021.6,   70.2, -999.0
02-06-2023, 00:12:21,     20,    0.7,    8.5,   0.00,   0.00, 1021.6,   70.3, -999.0
02-06-2023, 00:12:31,     20,    0.2,    8.4,   0.00,   0.00, 1021.5,   70.3, -999.0
02-06-2023, 00:12:41,     31,    1.4,    8.3,   0.00,   0.00, 1021.6,   70.6, -999.0
02-06-2023, 00:12:51,      5,    4.1,    8.4,   0.00,   0.00, 1021.6,   70.3, -999.0
02-06-2023, 00:13:01,     18,    2.2,    8.2,   0.00,   0.00, 1021.6,   70.0, -999.0
02-06-2023, 00:13:11,     36,    3.7,    8.3,   0.00,   0.00, 1021.6,   70.4, -999.0
02-06-2023, 00:13:21,     13,    3.8,    8.3,   0.00,   0.00, 1021.6,   70.6, -999.0
02-06-2023, 00:13:31,     27,    4.3,    8.3,   0.00,   0.00, 1021.6,   70.6, -999.0
02-06-2023, 00:13:41,     28,    2.4,    8.2,   0.00,   0.00, 1021.7,   70.6, -999.0
02-06-2023, 00:13:51,     17,    2.5,    8.2,   0.00,   0.00, 1021.6,   70.8, -999.0
02-06-2023, 00:14:01,     26,    2.3,    8.2,   0.00,   0.00, 1021.6,   70.9, -999.0
02-06-2023, 00:14:11,     19,    1.4,    8.2,   0.00,   0.00, 1021.6,   71.0, -999.0
02-06-2023, 00:14:21,     20,    0.5,    8.2,   0.00,   0.00, 1021.5,   71.1, -999.0
02-06-2023, 00:14:31,     55,    0.4,    8.2,   0.00,   0.00, 1021.6,   71.4, -999.0
02-06-2023, 00:14:41,     55,    0.5,    8.3,   0.00,   0.00, 1021.6,   71.5, -999.0
02-06-2023, 00:14:51,     59,    1.5,    8.2,   0.00,   0.00, 1021.6,   71.7, -999.0
02-06-2023, 00:15:01,     16,    1.9,    8.3,   0.00,   0.00, 1021.6,   71.4, -999.0
02-06-2023, 00:15:11,     26,    4.3,    8.4,   0.00,   0.00, 1021.6,   71.3, -999.0
02-06-2023, 00:15:21,     31,    3.5,    8.3,   0.00,   0.00, 1021.6,   71.0, -999.0
02-06-2023, 00:15:31,     43,    1.6,    8.3,   0.00,   0.00, 1021.6,   70.9, -999.0
02-06-2023, 00:15:41,     88,    1.6,    8.3,   0.00,   0.00, 1021.6,   70.9, -999.0
02-06-2023, 00:15:51,     27,    1.6,    8.3,   0.00,   0.00, 1021.6,   71.0, -999.0
02-06-2023, 00:16:01,     19,    2.0,    8.3,   0.00,   0.00, 1021.6,   71.0, -999.0
02-06-2023, 00:16:11,     35,    1.6,    8.4,   0.00,   0.00, 1021.6,   71.0, -999.0
02-06-2023, 00:16:21,     35,    0.4,    8.3,   0.00,   0.00, 1021.5,   70.8, -999.0
02-06-2023, 00:16:31,      0,    0.6,    8.3,   0.00,   0.00, 1021.5,   70.8, -999.0
02-06-2023, 00:16:41,      0,    0.2,    8.3,   0.00,   0.00, 1021.5,   70.8, -999.0
02-06-2023, 00:16:51,     61,    0.6,    8.3,   0.00,   0.00, 1021.5,   70.8, -999.0
02-06-2023, 00:17:01,     56,    0.0,    8.3,   0.00,   0.00, 1021.5,   70.8, -999.0
02-06-2023, 00:17:11,     57,    0.0,    8.3,   0.00,   0.00, 1021.4,   70.8, -999.0
02-06-2023, 00:17:20,     42,    0.6,    8.4,   0.00,   0.00, 1021.5,   70.9, -999.0
02-06-2023, 00:17:31,     56,    1.3,    8.5,   0.00,   0.00, 1021.6,   71.0, -999.0
02-06-2023, 00:17:41,     34,    1.7,    8.4,   0.00,   0.00, 1021.6,   70.8, -999.0
02-06-2023, 00:17:50,     69,    1.5,    8.4,   0.00,   0.00, 1021.6,   70.6, -999.0
02-06-2023, 00:18:00,     49,    3.5,    8.5,   0.00,   0.00, 1021.6,   70.7, -999.0
02-06-2023, 00:18:11,     59,    2.4,    8.4,   0.00,   0.00, 1021.6,   70.4, -999.0
02-06-2023, 00:18:20,     58,    0.5,    8.4,   0.00,   0.00, 1021.6,   70.2, -999.0
02-06-2023, 00:18:30,     58,    0.0,    8.2,   0.00,   0.00, 1021.5,   69.9, -999.0
02-06-2023, 00:18:41,     22,    2.4,    8.3,   0.00,   0.00, 1021.6,   70.4, -999.0
02-06-2023, 00:18:51,     10,    1.8,    8.3,   0.00,   0.00, 1021.6,   70.3, -999.0
02-06-2023, 00:19:00,     28,    1.3,    8.3,   0.00,   0.00, 1021.6,   70.3, -999.0
02-06-2023, 00:19:10,     31,    3.0,    8.2,   0.00,   0.00, 1021.6,   70.6, -999.0
02-06-2023, 00:19:21,     12,    1.5,    8.2,   0.00,   0.00, 1021.6,   70.5, -999.0
02-06-2023, 00:19:30,     61,    1.3,    8.2,   0.00,   0.00, 1021.6,   70.6, -999.0
02-06-2023, 00:19:40,     91,    2.2,    8.2,   0.00,   0.00, 1021.6,   70.7, -999.0
02-06-2023, 00:19:50,     80,    0.8,    8.3,   0.00,   0.00, 1021.6,   71.0, -999.0
02-06-2023, 00:20:00,     59,    1.7,    8.3,   0.00,   0.00, 1021.7,   71.1, -999.0
02-06-2023, 00:20:10,     33,    2.5,    8.5,   0.00,   0.00, 1021.7,   71.1, -999.0
02-06-2023, 00:20:20,     27,    5.3,    8.3,   0.00,   0.00, 1021.6,   71.1, -999.0
02-06-2023, 00:20:30,     39,    3.6,    8.3,   0.00,   0.00, 1021.6,   70.7, -999.0
02-06-2023, 00:20:40,    358,    2.5,    8.3,   0.00,   0.00, 1021.6,   70.7, -999.0
02-06-2023, 00:20:50,     34,    1.7,    8.2,   0.00,   0.00, 1021.6,   70.8, -999.0
02-06-2023, 00:21:00,     36,    1.4,    8.3,   0.00,   0.00, 1021.6,   70.8, -999.0
02-06-2023, 00:21:10,     37,    3.4,    8.2,   0.00,   0.00, 1021.6,   70.9, -999.0
02-06-2023, 00:21:20,     43,    3.2,    8.3,   0.00,   0.00, 1021.6,   70.8, -999.0
02-06-2023, 00:21:30,     42,    1.1,    8.3,   0.00,   0.00, 1021.6,   70.7, -999.0
02-06-2023, 00:21:40,     54,    0.5,    8.2,   0.00,   0.00, 1021.6,   70.8, -999.0
02-06-2023, 00:21:50,     72,    2.9,    8.2,   0.00,   0.00, 1021.7,   71.0, -999.0
02-06-2023, 00:22:00,     76,    1.7,    8.2,   0.00,   0.00, 1021.7,   71.0, -999.0
02-06-2023, 00:22:10,     46,    0.8,    8.2,   0.00,   0.00, 1021.6,   71.0, -999.0
02-06-2023, 00:22:20,     77,    1.6,    8.4,   0.00,   0.00, 1021.6,   71.0, -999.0
02-06-2023, 00:22:30,     11,    2.5,    8.3,   0.00,   0.00, 1021.6,   71.1, -999.0
02-06-2023, 00:22:40,     21,    4.0,    8.4,   0.00,   0.00, 1021.6,   71.0, -999.0
02-06-2023, 00:22:50,     44,    1.5,    8.3,   0.00,   0.00, 1021.7,   70.7, -999.0
02-06-2023, 00:23:00,      0,    2.5,    8.3,   0.00,   0.00, 1021.6,   70.9, -999.0
02-06-2023, 00:23:10,     24,    1.7,    8.3,   0.00,   0.00, 1021.6,   70.8, -999.0
02-06-2023, 00:23:20,     40,    0.3,    8.3,   0.00,   0.00, 1021.6,   71.0, -999.0
02-06-2023, 00:23:30,     40,    0.0,    8.3,   0.00,   0.00, 1021.6,   71.1, -999.0
02-06-2023, 00:23:40,     40,    0.0,    8.4,   0.00,   0.00, 1021.6,   71.2, -999.0
02-06-2023, 00:23:50,     40,    0.0,    8.4,   0.00,   0.00, 1021.6,   71.1, -999.0
02-06-2023, 00:24:00,     40,    0.0,    8.4,   0.00,   0.00, 1021.6,   70.8, -999.0
02-06-2023, 00:24:10,     46,    3.0,    8.4,   0.00,   0.00, 1021.6,   70.9, -999.0
02-06-2023, 00:24:20,     17,    3.0,    8.4,   0.00,   0.00, 1021.6,   70.6, -999.0
02-06-2023, 00:24:30,     19,    1.1,    8.4,   0.00,   0.00, 1021.6,   70.5, -999.0
02-06-2023, 00:24:40,      5,    1.5,    8.4,   0.00,   0.00, 1021.6,   70.5, -999.0
02-06-2023, 00:24:50,     21,    0.9,    8.4,   0.00,   0.00, 1021.6,   70.5, -999.0
02-06-2023, 00:25:00,     22,    2.0,    8.3,   0.00,   0.00, 1021.7,   70.6, -999.0
02-06-2023, 00:25:10,     33,    3.2,    8.3,   0.00,   0.00, 1021.6,   70.4, -999.0
02-06-2023, 00:25:20,     22,    2.6,    8.3,   0.00,   0.00, 1021.6,   70.5, -999.0
02-06-2023, 00:25:30,     47,    1.3,    8.2,   0.00,   0.00, 1021.6,   70.6, -999.0
02-06-2023, 00:25:40,     41,    0.4,    8.2,   0.00,   0.00, 1021.6,   70.5, -999.0
02-06-2023, 00:25:50,     61,    1.5,    8.3,   0.00,   0.00, 1021.6,   71.1, -999.0
02-06-2023, 00:26:00,     44,    2.0,    8.3,   0.00,   0.00, 1021.7,   71.1, -999.0
02-06-2023, 00:26:09,     44,    1.4,    8.3,   0.00,   0.00, 1021.6,   71.0, -999.0
02-06-2023, 00:26:20,     44,    0.0,    8.2,   0.00,   0.00, 1021.5,   70.8, -999.0
02-06-2023, 00:26:30,     43,    0.0,    8.3,   0.00,   0.00, 1021.6,   70.9, -999.0
02-06-2023, 00:26:39,     44,    0.0,    8.3,   0.00,   0.00, 1021.6,   71.0, -999.0
02-06-2023, 00:26:49,     44,    0.0,    8.4,   0.00,   0.00, 1021.5,   71.1, -999.0
02-06-2023, 00:27:00,     44,    0.0,    8.4,   0.00,   0.00, 1021.5,   71.1, -999.0
02-06-2023, 00:27:10,     42,    0.0,    8.4,   0.00,   0.00, 1021.6,   71.0, -999.0
02-06-2023, 00:27:19,     46,    2.7,    8.5,   0.00,   0.00, 1021.7,   71.2, -999.0
02-06-2023, 00:27:30,     40,    3.0,    8.5,   0.00,   0.00, 1021.6,   70.7, -999.0
02-06-2023, 00:27:40,     26,    1.3,    8.5,   0.00,   0.00, 1021.6,   70.5, -999.0
02-06-2023, 00:27:49,     21,    2.1,    8.4,   0.00,   0.00, 1021.6,   70.5, -999.0
02-06-2023, 00:27:59,     43,    1.8,    8.4,   0.00,   0.00, 1021.6,   70.5, -999.0
02-06-2023, 00:28:10,     35,    2.1,    8.4,   0.00,   0.00, 1021.6,   70.4, -999.0
02-06-2023, 00:28:19,     35,    0.0,    8.2,   0.00,   0.00, 1021.6,   70.3, -999.0
02-06-2023, 00:28:29,     35,    0.1,    8.2,   0.00,   0.00, 1021.6,   70.4, -999.0
02-06-2023, 00:28:39,     23,    0.6,    8.2,   0.00,   0.00, 1021.6,   70.5, -999.0
02-06-2023, 00:28:50,     57,    1.5,    8.3,   0.00,   0.00, 1021.6,   70.8, -999.0
02-06-2023, 00:28:59,     62,    0.5,    8.4,   0.00,   0.00, 1021.6,   70.9, -999.0
02-06-2023, 00:29:09,     62,    0.0,    8.4,   0.00,   0.00, 1021.6,   71.0, -999.0
02-06-2023, 00:29:19,     62,    0.0,    8.4,   0.00,   0.00, 1021.6,   70.8, -999.0
02-06-2023, 00:29:29,     62,    0.2,    8.4,   0.00,   0.00, 1021.6,   70.8, -999.0
02-06-2023, 00:29:39,     62,    0.4,    8.5,   0.00,   0.00, 1021.6,   70.6, -999.0
02-06-2023, 00:29:49,     37,    3.3,    8.5,   0.00,   0.00, 1021.6,   70.5, -999.0
02-06-2023, 00:29:59,     17,    2.6,    8.4,   0.00,   0.00, 1021.6,   70.4, -999.0
02-06-2023, 00:30:09,     22,    1.8,    8.4,   0.00,   0.00, 1021.6,   70.4, -999.0
02-06-2023, 00:30:19,     24,    1.1,    8.3,   0.00,   0.00, 1021.6,   70.3, -999.0
02-06-2023, 00:30:29,     25,    0.1,    8.3,   0.00,   0.00, 1021.6,   70.3, -999.0
02-06-2023, 00:30:39,     24,    0.1,    8.3,   0.00,   0.00, 1021.6,   70.5, -999.0
02-06-2023, 00:30:49,     24,    0.0,    8.2,   0.00,   0.00, 1021.5,   70.5, -999.0
02-06-2023, 00:30:59,     25,    0.0,    8.3,   0.00,   0.00, 1021.5,   70.4, -999.0
02-06-2023, 00:31:09,     27,    0.3,    8.3,   0.00,   0.00, 1021.6,   70.5, -999.0
02-06-2023, 00:31:19,     38,    1.0,    8.3,   0.00,   0.00, 1021.6,   70.4, -999.0
02-06-2023, 00:31:29,     26,    3.1,    8.3,   0.00,   0.00, 1021.6,   70.5, -999.0
02-06-2023, 00:31:39,     47,    3.6,    8.3,   0.00,   0.00, 1021.6,   70.4, -999.0
02-06-2023, 00:31:49,     42,    2.8,    8.2,   0.00,   0.00, 1021.6,   70.5, -999.0
02-06-2023, 00:31:59,     16,    2.1,    8.2,   0.00,   0.00, 1021.6,   70.5, -999.0
02-06-2023, 00:32:09,     46,    2.8,    8.2,   0.00,   0.00, 1021.6,   70.6, -999.0
02-06-2023, 00:32:19,     46,    0.7,    8.2,   0.00,   0.00, 1021.6,   70.7, -999.0
02-06-2023, 00:32:29,     47,    0.1,    7.8,   0.00,   0.00, 1021.6,   70.8, -999.0
02-06-2023, 00:32:39,     46,    0.6,    8.2,   0.00,   0.00, 1021.6,   70.8, -999.0
02-06-2023, 00:32:49,     47,    0.8,    8.2,   0.00,   0.00, 1021.6,   71.3, -999.0
02-06-2023, 00:32:59,     47,    0.3,    8.2,   0.00,   0.00, 1021.6,   71.2, -999.0
02-06-2023, 00:33:09,     38,    2.7,    8.2,   0.00,   0.00, 1021.6,   71.3, -999.0
02-06-2023, 00:33:19,     38,    0.9,    8.3,   0.00,   0.00, 1021.6,   71.2, -999.0
02-06-2023, 00:33:29,     39,    0.6,    8.2,   0.00,   0.00, 1021.6,   71.3, -999.0
02-06-2023, 00:33:39,     38,    1.0,    8.3,   0.00,   0.00, 1021.6,   71.3, -999.0
02-06-2023, 00:33:49,      9,    0.9,    8.2,   0.00,   0.00, 1021.6,   71.3, -999.0
02-06-2023, 00:33:59,     29,    2.4,    8.2,   0.00,   0.00, 1021.6,   71.4, -999.0
02-06-2023, 00:34:09,     33,    3.3,    8.1,   0.00,   0.00, 1021.6,   71.3, -999.0
02-06-2023, 00:34:19,     42,    1.2,    8.2,   0.00,   0.00, 1021.6,   71.3, -999.0
02-06-2023, 00:34:29,     26,    2.2,    8.2,   0.00,   0.00, 1021.6,   71.5, -999.0
02-06-2023, 00:34:39,     25,    1.2,    8.2,   0.00,   0.00, 1021.7,   71.6, -999.0
02-06-2023, 00:34:49,     53,    0.5,    8.2,   0.00,   0.00, 1021.6,   71.5, -999.0
02-06-2023, 00:34:58,     39,    1.6,    8.2,   0.00,   0.00, 1021.7,   71.7, -999.0
02-06-2023, 00:35:09,     48,    0.8,    8.1,   0.00,   0.00, 1021.6,   71.7, -999.0
02-06-2023, 00:35:19,     48,    0.2,    8.1,   0.00,   0.00, 1021.6,   71.5, -999.0
02-06-2023, 00:35:28,     67,    0.8,    8.2,   0.00,   0.00, 1021.7,   71.6, -999.0
02-06-2023, 00:35:38,     65,    0.5,    8.2,   0.00,   0.00, 1021.6,   71.6, -999.0
02-06-2023, 00:35:49,     47,    0.4,    8.2,   0.00,   0.00, 1021.6,   71.6, -999.0
02-06-2023, 00:35:59,     49,    0.3,    8.3,   0.00,   0.00, 1021.6,   71.5, -999.0
02-06-2023, 00:36:08,     49,    0.4,    8.2,   0.00,   0.00, 1021.7,   71.5, -999.0
02-06-2023, 00:36:18,     49,    0.1,    8.3,   0.00,   0.00, 1021.6,   71.6, -999.0
02-06-2023, 00:36:29,     49,    0.0,    8.2,   0.00,   0.00, 1021.5,   71.2, -999.0
02-06-2023, 00:36:38,     49,    0.0,    8.2,   0.00,   0.00, 1021.6,   71.2, -999.0
02-06-2023, 00:36:48,     49,    0.3,    8.2,   0.00,   0.00, 1021.6,   71.4, -999.0
02-06-2023, 00:36:58,     37,    1.5,    8.2,   0.00,   0.00, 1021.6,   71.5, -999.0
02-06-2023, 00:37:09,     19,    2.1,    8.2,   0.00,   0.00, 1021.7,   71.3, -999.0
02-06-2023, 00:37:18,     19,    1.2,    8.1,   0.00,   0.00, 1021.6,   71.4, -999.0
02-06-2023, 00:37:28,     17,    0.6,    8.1,   0.00,   0.00, 1021.6,   71.4, -999.0
02-06-2023, 00:37:39,     20,    0.0,    8.0,   0.00,   0.00, 1021.6,   71.4, -999.0
02-06-2023, 00:37:48,     22,    0.7,    8.1,   0.00,   0.00, 1021.6,   71.8, -999.0
02-06-2023, 00:37:58,     21,    0.0,    8.1,   0.00,   0.00, 1021.6,   71.7, -999.0
02-06-2023, 00:38:08,     22,    0.0,    8.1,   0.00,   0.00, 1021.5,   71.7, -999.0
02-06-2023, 00:38:18,     21,    0.0,    8.2,   0.00,   0.00, 1021.5,   71.7, -999.0
02-06-2023, 00:38:28,     22,    0.0,    8.2,   0.00,   0.00, 1021.5,   72.0, -999.0
02-06-2023, 00:38:38,     22,    0.0,    8.3,   0.00,   0.00, 1021.5,   72.1, -999.0
02-06-2023, 00:38:48,     22,    0.0,    8.3,   0.00,   0.00, 1021.5,   72.1, -999.0
02-06-2023, 00:38:58,     21,    0.0,    8.4,   0.00,   0.00, 1021.6,   71.8, -999.0
02-06-2023, 00:39:08,     22,    0.0,    8.3,   0.00,   0.00, 1021.5,   71.7, -999.0
02-06-2023, 00:39:18,     22,    0.0,    8.4,   0.00,   0.00, 1021.6,   71.6, -999.0
02-06-2023, 00:39:28,     22,    0.0,    8.4,   0.00,   0.00, 1021.5,   71.6, -999.0
02-06-2023, 00:39:38,     22,    0.0,    8.6,   0.00,   0.00, 1021.5,   71.4, -999.0
02-06-2023, 00:39:48,     22,    0.0,    8.4,   0.00,   0.00, 1021.5,   71.2, -999.0
02-06-2023, 00:39:58,     21,    0.0,    8.4,   0.00,   0.00, 1021.6,   71.3, -999.0
02-06-2023, 00:40:08,     21,    0.4,    8.5,   0.00,   0.00, 1021.6,   71.3, -999.0
02-06-2023, 00:40:18,     22,    0.0,    8.4,   0.00,   0.00, 1021.6,   70.7, -999.0
02-06-2023, 00:40:28,     22,    0.0,    8.3,   0.00,   0.00, 1021.6,   70.4, -999.0
02-06-2023, 00:40:38,     22,    0.0,    8.3,   0.00,   0.00, 1021.6,   70.5, -999.0
02-06-2023, 00:40:48,     22,    0.0,    8.3,   0.00,   0.00, 1021.6,   70.8, -999.0
02-06-2023, 00:40:58,     22,    0.0,    8.4,   0.00,   0.00, 1021.6,   70.9, -999.0
02-06-2023, 00:41:08,     22,    0.0,    8.3,   0.00,   0.00, 1021.5,   70.8, -999.0
02-06-2023, 00:41:18,     22,    0.0,    8.4,   0.00,   0.00, 1021.5,   70.7, -999.0
02-06-2023, 00:41:28,     22,    0.0,    8.3,   0.00,   0.00, 1021.6,   70.6, -999.0
02-06-2023, 00:41:38,     22,    0.0,    8.4,   0.00,   0.00, 1021.6,   71.0, -999.0
02-06-2023, 00:41:48,     40,    1.4,    8.5,   0.00,   0.00, 1021.7,   71.1, -999.0
02-06-2023, 00:41:58,      5,    2.4,    8.4,   0.00,   0.00, 1021.6,   70.8, -999.0
02-06-2023, 00:42:08,      0,    1.9,    8.3,   0.00,   0.00, 1021.7,   70.7, -999.0
02-06-2023, 00:42:18,     18,    1.5,    8.3,   0.00,   0.00, 1021.7,   70.7, -999.0
02-06-2023, 00:42:28,     39,    1.8,    8.2,   0.00,   0.00, 1021.7,   70.8, -999.0
02-06-2023, 00:42:38,      8,    0.8,    8.2,   0.00,   0.00, 1021.6,   70.8, -999.0
02-06-2023, 00:42:48,     11,    2.0,    8.2,   0.00,   0.00, 1021.7,   70.9, -999.0
02-06-2023, 00:42:58,     14,    1.3,    8.2,   0.00,   0.00, 1021.7,   71.1, -999.0
02-06-2023, 00:43:08,     21,    0.6,    8.1,   0.00,   0.00, 1021.7,   71.1, -999.0
02-06-2023, 00:43:18,     78,    0.2,    8.1,   0.00,   0.00, 1021.6,   71.3, -999.0
02-06-2023, 00:43:28,     78,    0.0,    8.1,   0.00,   0.00, 1021.5,   71.4, -999.0
02-06-2023, 00:43:38,     74,    0.8,    8.3,   0.00,   0.00, 1021.6,   71.9, -999.0
02-06-2023, 00:43:48,      3,    0.8,    8.3,   0.00,   0.00, 1021.7,   71.8, -999.0
02-06-2023, 00:43:57,     17,    1.6,    8.3,   0.00,   0.00, 1021.6,   71.7, -999.0
02-06-2023, 00:44:08,      3,    2.9,    8.3,   0.00,   0.00, 1021.6,   71.4, -999.0
02-06-2023, 00:44:18,     71,    1.8,    8.2,   0.00,   0.00, 1021.7,   71.1, -999.0
02-06-2023, 00:44:27,     19,    1.6,    8.2,   0.00,   0.00, 1021.7,   71.3, -999.0
02-06-2023, 00:44:37,    119,    1.6,    8.2,   0.00,   0.00, 1021.7,   71.1, -999.0
02-06-2023, 00:44:48,     67,    0.3,    8.2,   0.00,   0.00, 1021.6,   71.3, -999.0
02-06-2023, 00:44:58,     57,    3.4,    8.3,   0.00,   0.00, 1021.7,   71.6, -999.0
02-06-2023, 00:45:07,     17,    1.6,    8.3,   0.00,   0.00, 1021.7,   71.6, -999.0
02-06-2023, 00:45:17,     73,    1.4,    8.4,   0.00,   0.00, 1021.7,   71.1, -999.0
02-06-2023, 00:45:28,     93,    1.4,    8.5,   0.00,   0.00, 1021.7,   71.0, -999.0
02-06-2023, 00:45:37,     93,    0.2,    8.4,   0.00,   0.00, 1021.6,   70.9, -999.0
02-06-2023, 00:45:47,     55,    1.1,    8.4,   0.00,   0.00, 1021.6,   71.0, -999.0
02-06-2023, 00:45:58,     68,    1.3,    8.4,   0.00,   0.00, 1021.6,   70.8, -999.0
02-06-2023, 00:46:07,     38,    3.0,    8.4,   0.00,   0.00, 1021.7,   70.7, -999.0
02-06-2023, 00:46:17,     45,    2.3,    8.4,   0.00,   0.00, 1021.6,   70.7, -999.0
02-06-2023, 00:46:27,     45,    0.1,    8.4,   0.00,   0.00, 1021.6,   70.4, -999.0
02-06-2023, 00:46:38,     44,    1.0,    8.5,   0.00,   0.00, 1021.6,   70.9, -999.0
02-06-2023, 00:46:47,     44,    1.1,    8.5,   0.00,   0.00, 1021.7,   70.8, -999.0